OPS 4682 DEB, 38459

Orbit data source: Space-Track

OPS 4682 DEB, 38459 is space debris in LEO originally from a launch on Sat, 03 Apr 1965 UTC launched from the Air Force Western Test Range (AFWTR). Debris objects in space refer to the collection of defunct objects orbiting the Earth. Examples of debris include non-operational satellites, rocket bodies, and fragments generated from explosions, collisions, or faulty payload assembly.

Loading next visibility...
Identifier
38459, 1965-027FQ
Orbit
LEO
Country
Flag of USUS
Related business
Manufacturer
Unknown
Mission
Spacecraft
Bus & Motor
Unknown
Mass
Unknown
Launch date (UTC)
1965-04-03 (61 years ago)
Launch vehicle
Unknown
Launch site
Air Force Western Test Range (AFWTR)
Object type
Payload
Rocket body
Debris
Shape & HBR
Unknown shape, 0.1 m
Radar Cross Section
Medium (>0.1 m² and <1 m²)

Expand to show TLE details & history
Last TLE update: 3 days ago

TLE from 3 days ago
0 OPS 4682 DEB
1 38459U 65027FQ  26252.28901363 -.00000139  00000-0 -53667-3 0  9993
2 38459  90.2451   7.9529 0030031  70.5928 289.8432 12.92924997559359
Epoch: 2026-09-09T06:56Z
TLE epoch observation values (Epoch: 2026-09-09T06:56:10.777Z)
Latitude
-0°
Longitude
-84.43522°
Altitude
1,285.05 km
Speed
7.217 km/s
True Right ascension
00h 31m 48s
True Declination
0° 00' 00"
Sunlit
Object was in full shadow at epoch
Visualization orbit readout
Latitude
Unknown
Longitude
Unknown
Altitude
Unknown
Speed
Unknown
Apparent Right ascension
Unknown
Apparent Declination
Unknown
Sunlit
N/A
Visualization observer readout
Local Sidereal Time
14:47:49
Azimuth
Unknown
Elevation
Unknown
Doppler factor
Unknown
Orbital elements
Apogee altitude
1,310.09 km
Perigee altitude
1,264.051 km
Semi-major axis
7,665.208 km
Eccentricity
0.003
Inclination
90.2451°
RAAN
7.9529°
Arg. of periapsis
70.5928°
True anomaly
289.51909°
Mean anomaly
289.8432°
Eccentric anomaly
289.68119°
Mean motion
3.23413 °/min
Orbital period
111.31 mins
BSTAR
-0.00053667
Loading maneuver chart data...
Computing Atmospheric mass density...
Loading historical data...
Loading historical data...
Loading historical data...
Loading historical data...
Loading historical data...
Loading historical data...
Loading historical data...

Documentation

Showing up to 5 results
|